Year,Month,Day,Hour,Minute,Value (Times are PST for temperature in C)
2017,05,21,00,00,14.80
2017,05,21,00,01,14.80
2017,05,21,00,02,14.80
2017,05,21,00,03,14.80
2017,05,21,00,04,14.70
2017,05,21,00,05,14.70
2017,05,21,00,06,14.70
2017,05,21,00,07,14.60
2017,05,21,00,08,14.60
2017,05,21,00,09,14.60
2017,05,21,00,10,14.50
2017,05,21,00,11,14.40
2017,05,21,00,12,14.40
2017,05,21,00,13,14.40
2017,05,21,00,14,14.30
2017,05,21,00,15,14.30
2017,05,21,00,16,14.30
2017,05,21,00,17,14.20
2017,05,21,00,18,14.20
2017,05,21,00,19,14.20
2017,05,21,00,20,14.10
2017,05,21,00,21,14.10
2017,05,21,00,22,14.10
2017,05,21,00,23,14.10
2017,05,21,00,24,14.00
2017,05,21,00,25,14.00
2017,05,21,00,26,14.00
2017,05,21,00,27,13.90
2017,05,21,00,28,13.90
2017,05,21,00,29,13.80
2017,05,21,00,30,13.80
2017,05,21,00,31,13.70
2017,05,21,00,32,13.70
2017,05,21,00,33,13.60
2017,05,21,00,34,13.60
2017,05,21,00,35,13.60
2017,05,21,00,36,13.50
2017,05,21,00,37,13.50
2017,05,21,00,38,13.40
2017,05,21,00,39,13.40
2017,05,21,00,40,13.30
2017,05,21,00,41,13.30
2017,05,21,00,42,13.30
2017,05,21,00,43,13.20
2017,05,21,00,44,13.10
2017,05,21,00,45,13.10
2017,05,21,00,46,13.00
2017,05,21,00,47,12.90
2017,05,21,00,48,12.90
2017,05,21,00,49,12.80
2017,05,21,00,50,12.80
2017,05,21,00,51,12.80
2017,05,21,00,52,12.80
2017,05,21,00,53,12.70
2017,05,21,00,54,12.80
2017,05,21,00,55,12.80
2017,05,21,00,56,12.80
2017,05,21,00,57,12.80
2017,05,21,00,58,12.90
2017,05,21,00,59,12.90
2017,05,21,01,00,13.00
2017,05,21,01,01,13.00
2017,05,21,01,02,13.00
2017,05,21,01,03,13.10
2017,05,21,01,04,13.10
2017,05,21,01,05,13.00
2017,05,21,01,06,13.00
2017,05,21,01,07,13.00
2017,05,21,01,08,12.90
2017,05,21,01,09,12.90
2017,05,21,01,10,12.90
2017,05,21,01,11,12.90
2017,05,21,01,12,12.80
2017,05,21,01,13,12.80
2017,05,21,01,14,12.70
2017,05,21,01,15,12.70
2017,05,21,01,16,12.70
2017,05,21,01,17,12.60
2017,05,21,01,18,12.60
2017,05,21,01,19,12.60
2017,05,21,01,20,12.50
2017,05,21,01,21,12.50
2017,05,21,01,22,12.40
2017,05,21,01,23,12.40
2017,05,21,01,24,12.40
2017,05,21,01,25,12.40
2017,05,21,01,26,12.40
2017,05,21,01,27,12.40
2017,05,21,01,28,12.40
2017,05,21,01,29,12.40
2017,05,21,01,30,12.40
2017,05,21,01,31,12.40
2017,05,21,01,32,12.40
2017,05,21,01,33,12.40
2017,05,21,01,34,12.40
2017,05,21,01,35,12.40
2017,05,21,01,36,12.40
2017,05,21,01,37,12.40
2017,05,21,01,38,12.40
2017,05,21,01,39,12.40
2017,05,21,01,40,12.40
2017,05,21,01,41,12.40
2017,05,21,01,42,12.50
2017,05,21,01,43,12.50
2017,05,21,01,44,12.50
2017,05,21,01,45,12.60
2017,05,21,01,46,12.60
2017,05,21,01,47,12.60
2017,05,21,01,48,12.60
2017,05,21,01,49,12.60
2017,05,21,01,50,12.60
2017,05,21,01,51,12.60
2017,05,21,01,52,12.60
2017,05,21,01,53,12.60
2017,05,21,01,54,12.60
2017,05,21,01,55,12.60
2017,05,21,01,56,12.60
2017,05,21,01,57,12.50
2017,05,21,01,58,12.50
2017,05,21,01,59,12.50
2017,05,21,02,00,12.50
2017,05,21,02,01,12.50
2017,05,21,02,02,12.50
2017,05,21,02,03,12.50
2017,05,21,02,04,12.60
2017,05,21,02,05,12.60
2017,05,21,02,06,12.60
2017,05,21,02,07,12.60
2017,05,21,02,08,12.60
2017,05,21,02,09,12.60
2017,05,21,02,10,12.60
2017,05,21,02,11,12.60
2017,05,21,02,12,12.60
2017,05,21,02,13,12.60
2017,05,21,02,14,12.60
2017,05,21,02,15,12.60
2017,05,21,02,16,12.50
2017,05,21,02,17,12.50
2017,05,21,02,18,12.50
2017,05,21,02,19,12.50
2017,05,21,02,20,12.40
2017,05,21,02,21,12.40
2017,05,21,02,22,12.40
2017,05,21,02,23,12.40
2017,05,21,02,24,12.40
2017,05,21,02,25,12.30
2017,05,21,02,26,12.30
2017,05,21,02,27,12.30
2017,05,21,02,28,12.30
2017,05,21,02,29,12.30
2017,05,21,02,30,12.20
2017,05,21,02,31,12.20
2017,05,21,02,32,12.20
2017,05,21,02,33,12.20
2017,05,21,02,34,12.20
2017,05,21,02,35,12.10
2017,05,21,02,36,12.10
2017,05,21,02,37,12.10
2017,05,21,02,38,12.00
2017,05,21,02,39,12.00
2017,05,21,02,40,12.00
2017,05,21,02,41,11.90
2017,05,21,02,42,11.90
2017,05,21,02,43,11.90
2017,05,21,02,44,11.80
2017,05,21,02,45,11.80
2017,05,21,02,46,11.80
2017,05,21,02,47,11.80
2017,05,21,02,48,11.80
2017,05,21,02,49,11.70
2017,05,21,02,50,11.70
2017,05,21,02,51,11.70
2017,05,21,02,52,11.70
2017,05,21,02,53,11.60
2017,05,21,02,54,11.60
2017,05,21,02,55,11.60
2017,05,21,02,56,11.60
2017,05,21,02,57,11.60
2017,05,21,02,58,11.60
2017,05,21,02,59,11.60
2017,05,21,03,00,11.60
2017,05,21,03,01,11.60
2017,05,21,03,02,11.60
2017,05,21,03,03,11.60
2017,05,21,03,04,11.60
2017,05,21,03,05,11.60
2017,05,21,03,06,11.60
2017,05,21,03,07,11.60
2017,05,21,03,08,11.60
2017,05,21,03,09,11.60
2017,05,21,03,10,11.60
2017,05,21,03,11,11.60
2017,05,21,03,12,11.60
2017,05,21,03,13,11.60
2017,05,21,03,14,11.60
2017,05,21,03,15,11.60
2017,05,21,03,16,11.50
2017,05,21,03,17,11.50
2017,05,21,03,18,11.60
2017,05,21,03,19,11.60
2017,05,21,03,20,11.60
2017,05,21,03,21,11.70
2017,05,21,03,22,11.70
2017,05,21,03,23,11.70
2017,05,21,03,24,11.70
2017,05,21,03,25,11.70
2017,05,21,03,26,11.70
2017,05,21,03,27,11.70
2017,05,21,03,28,11.70
2017,05,21,03,29,11.70
2017,05,21,03,30,11.60
2017,05,21,03,31,11.60
2017,05,21,03,32,11.60
2017,05,21,03,33,11.50
2017,05,21,03,34,11.50
2017,05,21,03,35,11.40
2017,05,21,03,36,11.40
2017,05,21,03,37,11.30
2017,05,21,03,38,11.30
2017,05,21,03,39,11.30
2017,05,21,03,40,11.20
2017,05,21,03,41,11.20
2017,05,21,03,42,11.20
2017,05,21,03,43,11.10
2017,05,21,03,44,11.10
2017,05,21,03,45,11.00
2017,05,21,03,46,11.00
2017,05,21,03,47,10.90
2017,05,21,03,48,10.90
2017,05,21,03,49,10.80
2017,05,21,03,50,10.80
2017,05,21,03,51,10.80
2017,05,21,03,52,10.80
2017,05,21,03,53,10.80
2017,05,21,03,54,10.80
2017,05,21,03,55,10.80
2017,05,21,03,56,10.80
2017,05,21,03,57,10.70
2017,05,21,03,58,10.70
2017,05,21,03,59,10.70
2017,05,21,04,00,10.70
2017,05,21,04,01,10.60
2017,05,21,04,02,10.60
2017,05,21,04,03,10.60
2017,05,21,04,04,10.60
2017,05,21,04,05,10.60
2017,05,21,04,06,10.60
2017,05,21,04,07,10.50
2017,05,21,04,08,10.50
2017,05,21,04,09,10.50
2017,05,21,04,10,10.50
2017,05,21,04,11,10.50
2017,05,21,04,12,10.50
2017,05,21,04,13,10.50
2017,05,21,04,14,10.50
2017,05,21,04,15,10.50
2017,05,21,04,16,10.50
2017,05,21,04,17,10.60
2017,05,21,04,18,10.60
2017,05,21,04,19,10.60
2017,05,21,04,20,10.60
2017,05,21,04,21,10.60
2017,05,21,04,22,10.60
2017,05,21,04,23,10.60
2017,05,21,04,24,10.60
2017,05,21,04,25,10.60
2017,05,21,04,26,10.60
2017,05,21,04,27,10.60
2017,05,21,04,28,10.70
2017,05,21,04,29,10.70
2017,05,21,04,30,10.70
2017,05,21,04,31,10.70
2017,05,21,04,32,10.70
2017,05,21,04,33,10.70
2017,05,21,04,34,10.70
2017,05,21,04,35,10.70
2017,05,21,04,36,10.70
2017,05,21,04,37,10.70
2017,05,21,04,38,10.70
2017,05,21,04,39,10.70
2017,05,21,04,40,10.70
2017,05,21,04,41,10.70
2017,05,21,04,42,10.70
2017,05,21,04,43,10.70
2017,05,21,04,44,10.70
2017,05,21,04,45,10.70
2017,05,21,04,46,10.70
2017,05,21,04,47,10.70
2017,05,21,04,48,10.70
2017,05,21,04,49,10.70
2017,05,21,04,50,10.70
2017,05,21,04,51,10.70
2017,05,21,04,52,10.60
2017,05,21,04,53,10.60
2017,05,21,04,54,10.60
2017,05,21,04,55,10.50
2017,05,21,04,56,10.50
2017,05,21,04,57,10.50
2017,05,21,04,58,10.50
2017,05,21,04,59,10.50
2017,05,21,05,00,10.50
2017,05,21,05,01,10.50
2017,05,21,05,02,10.50
2017,05,21,05,03,10.50
2017,05,21,05,04,10.50
2017,05,21,05,05,10.50
2017,05,21,05,06,10.50
2017,05,21,05,07,10.50
2017,05,21,05,08,10.40
2017,05,21,05,09,10.40
2017,05,21,05,10,10.40
2017,05,21,05,11,10.40
2017,05,21,05,12,10.40
2017,05,21,05,13,10.40
2017,05,21,05,14,10.40
2017,05,21,05,15,10.40
2017,05,21,05,16,10.40
2017,05,21,05,17,10.40
2017,05,21,05,18,10.40
2017,05,21,05,19,10.50
2017,05,21,05,20,10.50
2017,05,21,05,21,10.50
2017,05,21,05,22,10.50
2017,05,21,05,23,10.60
2017,05,21,05,24,10.50
2017,05,21,05,25,10.50
2017,05,21,05,26,10.50
2017,05,21,05,27,10.50
2017,05,21,05,28,10.40
2017,05,21,05,29,10.50
2017,05,21,05,30,10.50
2017,05,21,05,31,10.60
2017,05,21,05,32,10.60
2017,05,21,05,33,10.70
2017,05,21,05,34,10.70
2017,05,21,05,35,10.80
2017,05,21,05,36,10.80
2017,05,21,05,37,10.90
2017,05,21,05,38,10.90
2017,05,21,05,39,11.00
2017,05,21,05,40,11.00
2017,05,21,05,41,11.00
2017,05,21,05,42,11.00
2017,05,21,05,43,11.10
2017,05,21,05,44,11.10
2017,05,21,05,45,11.10
2017,05,21,05,46,11.10
2017,05,21,05,47,11.10
2017,05,21,05,48,11.10
2017,05,21,05,49,11.10
2017,05,21,05,50,11.10
2017,05,21,05,51,11.10
2017,05,21,05,52,11.10
2017,05,21,05,53,11.10
2017,05,21,05,54,11.10
2017,05,21,05,55,11.10
2017,05,21,05,56,11.10
2017,05,21,05,57,11.10
2017,05,21,05,58,11.10
2017,05,21,05,59,11.10
2017,05,21,06,00,11.10
2017,05,21,06,01,11.10
2017,05,21,06,02,11.20
2017,05,21,06,03,11.20
2017,05,21,06,04,11.20
2017,05,21,06,05,11.30
2017,05,21,06,06,11.30
2017,05,21,06,07,11.30
2017,05,21,06,08,11.40
2017,05,21,06,09,11.40
2017,05,21,06,10,11.50
2017,05,21,06,11,11.50
2017,05,21,06,12,11.50
2017,05,21,06,13,11.40
2017,05,21,06,14,11.40
2017,05,21,06,15,11.50
2017,05,21,06,16,11.50
2017,05,21,06,17,11.50
2017,05,21,06,18,11.50
2017,05,21,06,19,11.50
2017,05,21,06,20,11.60
2017,05,21,06,21,11.60
2017,05,21,06,22,11.60
2017,05,21,06,23,11.60
2017,05,21,06,24,11.60
2017,05,21,06,25,11.60
2017,05,21,06,26,11.70
2017,05,21,06,27,11.70
2017,05,21,06,28,11.70
2017,05,21,06,29,11.70
2017,05,21,06,30,11.70
2017,05,21,06,31,11.70
2017,05,21,06,32,11.70
2017,05,21,06,33,11.70
2017,05,21,06,34,11.70
2017,05,21,06,35,11.70
2017,05,21,06,36,11.80
2017,05,21,06,37,11.80
2017,05,21,06,38,11.80
2017,05,21,06,39,11.90
2017,05,21,06,40,11.90
2017,05,21,06,41,12.00
2017,05,21,06,42,12.10
2017,05,21,06,43,12.10
2017,05,21,06,44,12.20
2017,05,21,06,45,12.20
2017,05,21,06,46,12.30
2017,05,21,06,47,12.30
2017,05,21,06,48,12.30
2017,05,21,06,49,12.40
2017,05,21,06,50,12.40
2017,05,21,06,51,12.50
2017,05,21,06,52,12.60
2017,05,21,06,53,12.60
2017,05,21,06,54,12.70
2017,05,21,06,55,12.80
2017,05,21,06,56,12.80
2017,05,21,06,57,12.80
2017,05,21,06,58,12.90
2017,05,21,06,59,12.90
2017,05,21,07,00,13.00
2017,05,21,07,01,13.00
2017,05,21,07,02,13.10
2017,05,21,07,03,13.20
2017,05,21,07,04,13.30
2017,05,21,07,05,13.40
2017,05,21,07,06,13.40
2017,05,21,07,07,13.50
2017,05,21,07,08,13.60
2017,05,21,07,09,13.60
2017,05,21,07,10,13.60
2017,05,21,07,11,13.60
2017,05,21,07,12,13.60
2017,05,21,07,13,13.60
2017,05,21,07,14,13.60
2017,05,21,07,15,13.60
2017,05,21,07,16,13.60
2017,05,21,07,17,13.60
2017,05,21,07,18,13.60
2017,05,21,07,19,13.70
2017,05,21,07,20,13.70
2017,05,21,07,21,13.70
2017,05,21,07,22,13.70
2017,05,21,07,23,13.70
2017,05,21,07,24,13.80
2017,05,21,07,25,13.80
2017,05,21,07,26,13.90
2017,05,21,07,27,13.90
2017,05,21,07,28,13.90
2017,05,21,07,29,14.00
2017,05,21,07,30,14.00
2017,05,21,07,31,14.00
2017,05,21,07,32,14.00
2017,05,21,07,33,14.10
2017,05,21,07,34,14.10
2017,05,21,07,35,14.10
2017,05,21,07,36,14.20
2017,05,21,07,37,14.30
2017,05,21,07,38,14.40
2017,05,21,07,39,14.50
2017,05,21,07,40,14.60
2017,05,21,07,41,14.70
2017,05,21,07,42,14.80
2017,05,21,07,43,14.90
2017,05,21,07,44,15.00
2017,05,21,07,45,15.00
2017,05,21,07,46,15.00
2017,05,21,07,47,14.90
2017,05,21,07,48,14.90
2017,05,21,07,49,15.00
2017,05,21,07,50,15.00
2017,05,21,07,51,15.00
2017,05,21,07,52,15.10
2017,05,21,07,53,15.10
2017,05,21,07,54,15.10
2017,05,21,07,55,15.10
2017,05,21,07,56,15.10
2017,05,21,07,57,15.20
2017,05,21,07,58,15.20
2017,05,21,07,59,15.20
2017,05,21,08,00,15.10
2017,05,21,08,01,15.10
2017,05,21,08,02,15.10
2017,05,21,08,03,15.10
2017,05,21,08,04,15.10
2017,05,21,08,05,15.10
2017,05,21,08,06,15.20
2017,05,21,08,07,15.20
2017,05,21,08,08,15.20
2017,05,21,08,09,15.20
2017,05,21,08,10,15.20
2017,05,21,08,11,15.30
2017,05,21,08,12,15.30
2017,05,21,08,13,15.30
2017,05,21,08,14,15.30
2017,05,21,08,15,15.30
2017,05,21,08,16,15.30
2017,05,21,08,17,15.30
2017,05,21,08,18,15.20
2017,05,21,08,19,15.20
2017,05,21,08,20,15.20
2017,05,21,08,21,15.20
2017,05,21,08,22,15.20
2017,05,21,08,23,15.20
2017,05,21,08,24,15.20
2017,05,21,08,25,15.20
2017,05,21,08,26,15.20
2017,05,21,08,27,15.30
2017,05,21,08,28,15.30
2017,05,21,08,29,15.30
2017,05,21,08,30,15.40
2017,05,21,08,31,15.40
2017,05,21,08,32,15.50
2017,05,21,08,33,15.50
2017,05,21,08,34,15.50
2017,05,21,08,35,15.50
2017,05,21,08,36,15.40
2017,05,21,08,37,15.40
2017,05,21,08,38,15.40
2017,05,21,08,39,15.40
2017,05,21,08,40,15.40
2017,05,21,08,41,15.40
2017,05,21,08,42,15.40
2017,05,21,08,43,15.50
2017,05,21,08,44,15.50
2017,05,21,08,45,15.60
2017,05,21,08,46,15.60
2017,05,21,08,47,15.60
2017,05,21,08,48,15.60
2017,05,21,08,49,15.70
2017,05,21,08,50,15.70
2017,05,21,08,51,15.70
2017,05,21,08,52,15.60
2017,05,21,08,53,15.50
2017,05,21,08,54,15.50
2017,05,21,08,55,15.40
2017,05,21,08,56,15.30
2017,05,21,08,57,15.20
2017,05,21,08,58,15.10
2017,05,21,08,59,14.90
2017,05,21,09,00,14.70
2017,05,21,09,01,14.60
2017,05,21,09,02,14.50
2017,05,21,09,03,14.40
2017,05,21,09,04,14.30
2017,05,21,09,05,14.20
2017,05,21,09,06,14.10
2017,05,21,09,07,14.00
2017,05,21,09,08,13.90
2017,05,21,09,09,13.90
2017,05,21,09,10,13.80
2017,05,21,09,11,13.80
2017,05,21,09,12,13.80
2017,05,21,09,13,13.80
2017,05,21,09,14,13.80
2017,05,21,09,15,13.80
2017,05,21,09,16,13.80
2017,05,21,09,17,13.80
2017,05,21,09,18,13.80
2017,05,21,09,19,13.80
2017,05,21,09,20,13.80
2017,05,21,09,21,13.80
2017,05,21,09,22,13.90
2017,05,21,09,23,13.90
2017,05,21,09,24,13.90
2017,05,21,09,25,14.00
2017,05,21,09,26,14.10
2017,05,21,09,27,14.10
2017,05,21,09,28,14.20
2017,05,21,09,29,14.20
2017,05,21,09,30,14.30
2017,05,21,09,31,14.30
2017,05,21,09,32,14.30
2017,05,21,09,33,14.30
2017,05,21,09,34,14.20
2017,05,21,09,35,14.20
2017,05,21,09,36,14.20
2017,05,21,09,37,14.20
2017,05,21,09,38,14.20
2017,05,21,09,39,14.30
2017,05,21,09,40,14.30
2017,05,21,09,41,14.40
2017,05,21,09,42,14.40
2017,05,21,09,43,14.30
2017,05,21,09,44,14.30
2017,05,21,09,45,14.20
2017,05,21,09,46,14.20
2017,05,21,09,47,14.20
2017,05,21,09,48,14.20
2017,05,21,09,49,14.20
2017,05,21,09,50,14.20
2017,05,21,09,51,14.10
2017,05,21,09,52,14.10
2017,05,21,09,53,14.10
2017,05,21,09,54,14.10
2017,05,21,09,55,14.20
2017,05,21,09,56,14.20
2017,05,21,09,57,14.20
2017,05,21,09,58,14.30
2017,05,21,09,59,14.30
2017,05,21,10,00,14.30
2017,05,21,10,01,14.30
2017,05,21,10,02,14.30
2017,05,21,10,03,14.30
2017,05,21,10,04,14.30
2017,05,21,10,05,14.30
2017,05,21,10,06,14.30
2017,05,21,10,07,14.20
2017,05,21,10,08,14.20
2017,05,21,10,09,14.20
2017,05,21,10,10,14.20
2017,05,21,10,11,14.30
2017,05,21,10,12,14.30
2017,05,21,10,13,14.40
2017,05,21,10,14,14.40
2017,05,21,10,15,14.40
2017,05,21,10,16,14.40
2017,05,21,10,17,14.40
2017,05,21,10,18,14.40
2017,05,21,10,19,14.40
2017,05,21,10,20,14.40
2017,05,21,10,21,14.40
2017,05,21,10,22,14.40
2017,05,21,10,23,14.40
2017,05,21,10,24,14.40
2017,05,21,10,25,14.30
2017,05,21,10,26,14.30
2017,05,21,10,27,14.30
2017,05,21,10,28,14.30
2017,05,21,10,29,14.30
2017,05,21,10,30,14.30
2017,05,21,10,31,14.40
2017,05,21,10,32,14.40
2017,05,21,10,33,14.40
2017,05,21,10,34,14.40
2017,05,21,10,35,14.40
2017,05,21,10,36,14.30
2017,05,21,10,37,14.30
2017,05,21,10,38,14.40
2017,05,21,10,39,14.40
2017,05,21,10,40,14.40
2017,05,21,10,41,14.50
2017,05,21,10,42,14.60
2017,05,21,10,43,14.60
2017,05,21,10,44,14.60
2017,05,21,10,45,14.60
2017,05,21,10,46,14.60
2017,05,21,10,47,14.60
2017,05,21,10,48,14.50
2017,05,21,10,49,14.40
2017,05,21,10,50,14.30
2017,05,21,10,51,14.20
2017,05,21,10,52,14.10
2017,05,21,10,53,14.00
2017,05,21,10,54,14.00
2017,05,21,10,55,14.00
2017,05,21,10,56,14.00
2017,05,21,10,57,14.10
2017,05,21,10,58,14.10
2017,05,21,10,59,14.20
2017,05,21,11,00,14.30
2017,05,21,11,01,14.30
2017,05,21,11,02,14.40
2017,05,21,11,03,14.40
2017,05,21,11,04,14.50
2017,05,21,11,05,14.50
2017,05,21,11,06,14.50
2017,05,21,11,07,14.60
2017,05,21,11,08,14.60
2017,05,21,11,09,14.60
2017,05,21,11,10,14.60
2017,05,21,11,11,14.60
2017,05,21,11,12,14.60
2017,05,21,11,13,14.60
2017,05,21,11,14,14.60
2017,05,21,11,15,14.70
2017,05,21,11,16,14.70
2017,05,21,11,17,14.80
2017,05,21,11,18,14.80
2017,05,21,11,19,14.80
2017,05,21,11,20,14.80
2017,05,21,11,21,14.90
2017,05,21,11,22,14.90
2017,05,21,11,23,15.00
2017,05,21,11,24,15.00
2017,05,21,11,25,15.10
2017,05,21,11,26,15.20
2017,05,21,11,27,15.20
2017,05,21,11,28,15.20
2017,05,21,11,29,15.30
2017,05,21,11,30,15.30
2017,05,21,11,31,15.30
2017,05,21,11,32,15.40
2017,05,21,11,33,15.40
2017,05,21,11,34,15.40
2017,05,21,11,35,15.40
2017,05,21,11,36,15.40
2017,05,21,11,37,15.40
2017,05,21,11,38,15.30
2017,05,21,11,39,15.30
2017,05,21,11,40,15.30
2017,05,21,11,41,15.30
2017,05,21,11,42,15.30
2017,05,21,11,43,15.30
2017,05,21,11,44,15.30
2017,05,21,11,45,15.30
2017,05,21,11,46,15.30
2017,05,21,11,47,15.30
2017,05,21,11,48,15.30
2017,05,21,11,49,15.20
2017,05,21,11,50,15.20
2017,05,21,11,51,15.10
2017,05,21,11,52,15.10
2017,05,21,11,53,15.10
2017,05,21,11,54,15.10
2017,05,21,11,55,15.10
2017,05,21,11,56,15.10
2017,05,21,11,57,15.20
2017,05,21,11,58,15.20
2017,05,21,11,59,15.20
2017,05,21,12,00,15.20
2017,05,21,12,01,15.30
2017,05,21,12,02,15.30
2017,05,21,12,03,15.30
2017,05,21,12,04,15.30
2017,05,21,12,05,15.40
2017,05,21,12,06,15.40
2017,05,21,12,07,15.50
2017,05,21,12,08,15.50
2017,05,21,12,09,15.60
2017,05,21,12,10,15.60
2017,05,21,12,11,15.70
2017,05,21,12,12,15.70
2017,05,21,12,13,15.70
2017,05,21,12,14,15.80
2017,05,21,12,15,15.80
2017,05,21,12,16,15.80
2017,05,21,12,17,15.90
2017,05,21,12,18,16.00
2017,05,21,12,19,16.00
2017,05,21,12,20,16.10
2017,05,21,12,21,16.10
2017,05,21,12,22,16.20
2017,05,21,12,23,16.20
2017,05,21,12,24,16.20
2017,05,21,12,25,16.20
2017,05,21,12,26,16.20
2017,05,21,12,27,16.10
2017,05,21,12,28,16.10
2017,05,21,12,29,16.10
2017,05,21,12,30,16.10
2017,05,21,12,31,16.10
2017,05,21,12,32,16.10
2017,05,21,12,33,16.00
2017,05,21,12,34,16.00
2017,05,21,12,35,15.90
2017,05,21,12,36,15.90
2017,05,21,12,37,15.90
2017,05,21,12,38,15.90
2017,05,21,12,39,15.90
2017,05,21,12,40,15.80
2017,05,21,12,41,15.80
2017,05,21,12,42,15.80
2017,05,21,12,43,15.80
2017,05,21,12,44,15.70
2017,05,21,12,45,15.70
2017,05,21,12,46,15.70
2017,05,21,12,47,15.70
2017,05,21,12,48,15.70
2017,05,21,12,49,15.80
2017,05,21,12,50,15.80
2017,05,21,12,51,15.90
2017,05,21,12,52,15.90
2017,05,21,12,53,15.90
2017,05,21,12,54,16.00
2017,05,21,12,55,16.00
2017,05,21,12,56,16.10
2017,05,21,12,57,16.20
2017,05,21,12,58,16.20
2017,05,21,12,59,16.30
2017,05,21,13,00,16.30
2017,05,21,13,01,16.30
2017,05,21,13,02,16.30
2017,05,21,13,03,16.30
2017,05,21,13,04,16.30
2017,05,21,13,05,16.20
2017,05,21,13,06,16.20
2017,05,21,13,07,16.10
2017,05,21,13,08,16.00
2017,05,21,13,09,16.00
2017,05,21,13,10,15.90
2017,05,21,13,11,15.80
2017,05,21,13,12,15.70
2017,05,21,13,13,15.60
2017,05,21,13,14,15.60
2017,05,21,13,15,15.50
2017,05,21,13,16,15.40
2017,05,21,13,17,15.40
2017,05,21,13,18,15.40
2017,05,21,13,19,15.40
2017,05,21,13,20,15.40
2017,05,21,13,21,15.50
2017,05,21,13,22,15.60
2017,05,21,13,23,15.70
2017,05,21,13,24,15.70
2017,05,21,13,25,15.70
2017,05,21,13,26,15.70
2017,05,21,13,27,15.70
2017,05,21,13,28,15.70
2017,05,21,13,29,15.70
2017,05,21,13,30,15.70
2017,05,21,13,31,15.80
2017,05,21,13,32,15.80
2017,05,21,13,33,15.80
2017,05,21,13,34,15.80
2017,05,21,13,35,15.80
2017,05,21,13,36,15.80
2017,05,21,13,37,15.80
2017,05,21,13,38,15.80
2017,05,21,13,39,15.90
2017,05,21,13,40,16.00
2017,05,21,13,41,16.10
2017,05,21,13,42,16.10
2017,05,21,13,43,16.20
2017,05,21,13,44,16.20
2017,05,21,13,45,16.30
2017,05,21,13,46,16.30
2017,05,21,13,47,16.30
2017,05,21,13,48,16.30
2017,05,21,13,49,16.40
2017,05,21,13,50,16.40
2017,05,21,13,51,16.30
2017,05,21,13,52,16.30
2017,05,21,13,53,16.30
2017,05,21,13,54,16.30
2017,05,21,13,55,16.30
2017,05,21,13,56,16.40
2017,05,21,13,57,16.40
2017,05,21,13,58,16.40
2017,05,21,13,59,16.40
2017,05,21,14,00,16.50
2017,05,21,14,01,16.50
2017,05,21,14,02,16.60
2017,05,21,14,03,16.70
2017,05,21,14,04,16.70
2017,05,21,14,05,16.80
2017,05,21,14,06,16.80
2017,05,21,14,07,16.90
2017,05,21,14,08,16.80
2017,05,21,14,09,16.80
2017,05,21,14,10,16.80
2017,05,21,14,11,16.80
2017,05,21,14,12,16.90
2017,05,21,14,13,16.90
2017,05,21,14,14,16.90
2017,05,21,14,15,16.80
2017,05,21,14,16,16.80
2017,05,21,14,17,16.80
2017,05,21,14,18,16.80
2017,05,21,14,19,16.90
2017,05,21,14,20,17.00
2017,05,21,14,21,17.00
2017,05,21,14,22,17.00
2017,05,21,14,23,17.00
2017,05,21,14,24,17.10
2017,05,21,14,25,17.20
2017,05,21,14,26,17.20
2017,05,21,14,27,17.30
2017,05,21,14,28,17.30
2017,05,21,14,29,17.30
2017,05,21,14,30,17.30
2017,05,21,14,31,17.40
2017,05,21,14,32,17.40
2017,05,21,14,33,17.40
2017,05,21,14,34,17.30
2017,05,21,14,35,17.30
2017,05,21,14,36,17.20
2017,05,21,14,37,17.20
2017,05,21,14,38,17.20
2017,05,21,14,39,17.20
2017,05,21,14,40,17.20
2017,05,21,14,41,17.30
2017,05,21,14,42,17.30
2017,05,21,14,43,17.30
2017,05,21,14,44,17.30
2017,05,21,14,45,17.30
2017,05,21,14,46,17.30
2017,05,21,14,47,17.30
2017,05,21,14,48,17.30
2017,05,21,14,49,17.40
2017,05,21,14,50,17.40
2017,05,21,14,51,17.40
2017,05,21,14,52,17.40
2017,05,21,14,53,17.40
2017,05,21,14,54,17.50
2017,05,21,14,55,17.50
2017,05,21,14,56,17.60
2017,05,21,14,57,17.70
2017,05,21,14,58,17.70
2017,05,21,14,59,17.80
2017,05,21,15,00,17.80
2017,05,21,15,01,17.70
2017,05,21,15,02,17.70
2017,05,21,15,03,17.70
2017,05,21,15,04,17.70
2017,05,21,15,05,17.70
2017,05,21,15,06,17.70
2017,05,21,15,07,17.70
2017,05,21,15,08,17.80
2017,05,21,15,09,17.80
2017,05,21,15,10,17.80
2017,05,21,15,11,17.80
2017,05,21,15,12,17.80
2017,05,21,15,13,17.90
2017,05,21,15,14,17.90
2017,05,21,15,15,18.00
2017,05,21,15,16,18.00
2017,05,21,15,17,18.10
2017,05,21,15,18,18.10
2017,05,21,15,19,18.20
2017,05,21,15,20,18.20
2017,05,21,15,21,18.20
2017,05,21,15,22,18.20
2017,05,21,15,23,18.20
2017,05,21,15,24,18.20
2017,05,21,15,25,18.20
2017,05,21,15,26,18.20
2017,05,21,15,27,18.20
2017,05,21,15,28,18.20
2017,05,21,15,29,18.20
2017,05,21,15,30,18.30
2017,05,21,15,31,18.30
2017,05,21,15,32,18.30
2017,05,21,15,33,18.30
2017,05,21,15,34,18.40
2017,05,21,15,35,18.40
2017,05,21,15,36,18.50
2017,05,21,15,37,18.50
2017,05,21,15,38,18.50
2017,05,21,15,39,18.60
2017,05,21,15,40,18.60
2017,05,21,15,41,18.60
2017,05,21,15,42,18.60
2017,05,21,15,43,18.60
2017,05,21,15,44,18.60
2017,05,21,15,45,18.70
2017,05,21,15,46,18.70
2017,05,21,15,47,18.70
2017,05,21,15,48,18.70
2017,05,21,15,49,18.80
2017,05,21,15,50,18.80
2017,05,21,15,51,18.80
2017,05,21,15,52,18.80
2017,05,21,15,53,18.80
2017,05,21,15,54,18.80
2017,05,21,15,55,18.80
2017,05,21,15,56,18.80
2017,05,21,15,57,18.80
2017,05,21,15,58,18.80
2017,05,21,15,59,18.80
2017,05,21,16,00,18.80
2017,05,21,16,01,18.80
2017,05,21,16,02,18.80
2017,05,21,16,03,18.80
2017,05,21,16,04,18.80
2017,05,21,16,05,18.80
2017,05,21,16,06,18.80
2017,05,21,16,07,18.80
2017,05,21,16,08,18.80
2017,05,21,16,09,18.80
2017,05,21,16,10,18.90
2017,05,21,16,11,18.90
2017,05,21,16,12,19.00
2017,05,21,16,13,19.00
2017,05,21,16,14,19.10
2017,05,21,16,15,19.10
2017,05,21,16,16,19.20
2017,05,21,16,17,19.20
2017,05,21,16,18,19.20
2017,05,21,16,19,19.20
2017,05,21,16,20,19.30
2017,05,21,16,21,19.30
2017,05,21,16,22,19.30
2017,05,21,16,23,19.30
2017,05,21,16,24,19.30
2017,05,21,16,25,19.30
2017,05,21,16,26,19.30
2017,05,21,16,27,19.30
2017,05,21,16,28,19.30
2017,05,21,16,29,19.40
2017,05,21,16,30,19.40
2017,05,21,16,31,19.50
2017,05,21,16,32,19.50
2017,05,21,16,33,19.60
2017,05,21,16,34,19.60
2017,05,21,16,35,19.70
2017,05,21,16,36,19.70
2017,05,21,16,37,19.70
2017,05,21,16,38,19.70
2017,05,21,16,39,19.70
2017,05,21,16,40,19.70
2017,05,21,16,41,19.70
2017,05,21,16,42,19.70
2017,05,21,16,43,19.60
2017,05,21,16,44,19.60
2017,05,21,16,45,19.50
2017,05,21,16,46,19.50
2017,05,21,16,47,19.40
2017,05,21,16,48,19.40
2017,05,21,16,49,19.30
2017,05,21,16,50,19.30
2017,05,21,16,51,19.30
2017,05,21,16,52,19.40
2017,05,21,16,53,19.40
2017,05,21,16,54,19.40
2017,05,21,16,55,19.40
2017,05,21,16,56,19.50
2017,05,21,16,57,19.50
2017,05,21,16,58,19.60
2017,05,21,16,59,19.60
2017,05,21,17,00,19.60
2017,05,21,17,01,19.60
2017,05,21,17,02,19.60
2017,05,21,17,03,19.60
2017,05,21,17,04,19.60
2017,05,21,17,05,19.50
2017,05,21,17,06,19.60
2017,05,21,17,07,19.60
2017,05,21,17,08,19.60
2017,05,21,17,09,19.50
2017,05,21,17,10,19.50
2017,05,21,17,11,19.50
2017,05,21,17,12,19.50
2017,05,21,17,13,19.50
2017,05,21,17,14,19.40
2017,05,21,17,15,19.40
2017,05,21,17,16,19.30
2017,05,21,17,17,19.20
2017,05,21,17,18,19.20
2017,05,21,17,19,19.20